This is the latest recevied weather packets stored in our database for station/object HB9KBJ-8. If no packets are shown the sender has not sent any weather packets the latest 1 day(s).
| Time | Temp. | Humidity | Pressure | Rain* | Wind** | Luminosity | Snow |
|---|---|---|---|---|---|---|---|
| 1778003250 | 15° C | 79% | 1008.9 hPa | 0 mm | 1.34 m/s, 161° | 153 W/m² | - |
| 1778002944 | 15° C | 80% | 1009 hPa | 0 mm | 0 m/s | 156 W/m² | - |
| 1778002642 | 14.44° C | 80% | 1009 hPa | 0 mm | 0 m/s | 142 W/m² | - |
| 1778002335 | 14.44° C | 80% | 1009 hPa | 0 mm | 0 m/s | 88 W/m² | - |
| 1778002039 | 14.44° C | 81% | 1009 hPa | 0 mm | 0 m/s | 188 W/m² | - |
| 1778001736 | 14.44° C | 82% | 1008.9 hPa | 0 mm | 0 m/s | 216 W/m² | - |
| 1778001454 | 13.89° C | 82% | 1008.8 hPa | 0 mm | 0 m/s | 181 W/m² | - |
| 1778001149 | 13.89° C | 82% | 1008.7 hPa | 0 mm | 0 m/s | 213 W/m² | - |
| 1778000848 | 13.89° C | 82% | 1008.7 hPa | 0 mm | 0 m/s | 88 W/m² | - |
| 1778000549 | 13.89° C | 82% | 1008.7 hPa | 0 mm | 0 m/s | 56 W/m² | - |
| 1778000251 | 13.89° C | 82% | 1008.8 hPa | 0 mm | 0 m/s | 33 W/m² | - |
| 1777999949 | 13.89° C | 82% | 1008.7 hPa | 0 mm | 0 m/s | 21 W/m² | - |
| 1777999650 | 13.89° C | 82% | 1008.7 hPa | 0 mm | 0 m/s | 21 W/m² | - |
| 1777999349 | 13.89° C | 82% | 1008.7 hPa | 0 mm | 0 m/s | 28 W/m² | - |
| 1777999048 | 13.89° C | 81% | 1008.8 hPa | 0 mm | 0 m/s | 42 W/m² | - |
| 1777998747 | 13.89° C | 81% | 1008.8 hPa | 0 mm | 0 m/s | 47 W/m² | - |
| 1777998447 | 13.89° C | 80% | 1008.9 hPa | 0 mm | 0 m/s | 53 W/m² | - |
| 1777998133 | 13.89° C | 80% | 1008.8 hPa | 0 mm | 0 m/s | 60 W/m² | - |
| 1777997836 | 13.89° C | 80% | 1008.9 hPa | 0 mm | 0 m/s | 62 W/m² | - |
| 1777997535 | 13.89° C | 80% | 1009 hPa | 0 mm | 0.45 m/s, 152° | 63 W/m² | - |
| 1777997236 | 13.89° C | 81% | 1008.9 hPa | 0 mm | 0 m/s | 62 W/m² | - |
| 1777996949 | 13.89° C | 80% | 1008.9 hPa | 0 mm | 0 m/s | 69 W/m² | - |
| 1777996647 | 13.89° C | 80% | 1009.1 hPa | 0 mm | 0 m/s | 109 W/m² | - |
| 1777996347 | 13.89° C | 79% | 1009.2 hPa | 0 mm | 0.45 m/s, 159° | 148 W/m² | - |
| 1777996046 | 14.44° C | 76% | 1009 hPa | 0 mm | 0.89 m/s, 150° | 69 W/m² | - |
* Rain latest hour (hover to see other rain measurements)
** Current wind speed in m/s (hover to see current wind gust speed)